Location: Atherton
(17.2661°S, 145.4859°E)
Time: 23:21:01
(UTC+10:00)

Transit 2A - Pass Details

Date: 19 June 2025
Orbit: 598 x 948 km, 66.7° (Epoch: 19 July)

Event Time Altitude Azimuth Distance (km) Brightness Sun altitude
Rises 11:30:28 0° 321° (NW) 3,365 9.6 47.6°
Reaches altitude 10° 11:32:59 10° 313° (NW) 2,487 9.0 47.8°
Maximum altitude 11:38:22 39° 245° (WSW) 1,339 7.4 48.1°
Drops below altitude 10° 11:44:08 10° 178° (S) 2,659 8.5 48.4°
Sets 11:46:56 0° 170° (S) 3,625 9.1 48.5°
